GFSFLT2_sfc_dewp_000.txt.gz
Dewpoint
21 22 22 24 25 25 27 28 27 30 31 31 31 31 33 32 31 32 33 34 35 37 37 38 38 39 39
24 26 26 26 28 30 27 23 22 26 29 30 29 29 29 30 30 31 35 36 34 34 35 37 39 40 40
23 23 24 29 25 21 19 18 17 24 28 29 29 30 31 32 36 32 30 31 31 32 33 33 34 36 37
26 25 30 24 21 18 17 19 19 20 26 28 29 30 30 29 29 29 29 30 31 32 32 33 35 37 38
24 25 24 19 18 18 18 19 22 28 22 21 23 23 23 27 27 28 29 31 32 35 34 33 34 36 38
27 22 20 19 19 19 22 25 17 20 20 21 22 21 23 24 28 29 29 29 31 30 32 34 34 36 35
21 20 20 21 26 25 22 21 21 22 22 21 21 21 21 20 27 28 28 29 30 32 34 34 34 34 34
19 23 26 22 19 20 24 24 24 21 21 19 19 18 20 21 27 28 29 29 31 34 36 38 38 38 38
27 25 24 24 24 24 23 21 18 17 18 19 19 20 20 21 22 27 29 29 29 32 34 34 34 35 33
16 18 20 20 25 23 24 20 19 17 17 20 20 21 20 21 23 23 24 28 29 31 32 34 36 33 33
16 18 19 20 20 22 24 24 20 19 21 24 23 22 22 21 21 20 21 25 24 25 31 34 36 36 32
18 18 19 20 22 22 24 24 25 24 25 26 24 24 23 21 18 18 18 22 24 26 28 32 35 37 38
19 19 21 22 23 23 24 24 24 25 27 27 25 24 24 21 20 18 19 21 25 28 30 31 32 33 32
20 20 19 20 21 23 22 21 22 22 25 27 27 26 22 20 20 18 20 21 26 29 31 32 33 34 34
20 19 18 19 20 21 22 22 20 22 22 24 25 25 23 20 19 21 22 25 29 31 32 32 33 34 36
19 19 19 20 19 21 21 22 22 22 23 23 23 22 20 22 25 21 28 28 30 32 32 31 31 33 34
18 20 20 18 19 19 20 22 21 23 23 23 22 21 18 18 23 30 29 30 30 30 32 32 31 32 34

GFSFLT2_sfc_dewp_003.txt.gz
Dewpoint
24 25 25 25 25 26 28 31 28 31 30 29 29 30 31 32 34 35 35 36 35 36 36 38 39 40 41
25 22 21 22 24 30 28 22 21 24 28 28 29 30 31 32 32 33 33 35 38 40 39 38 39 39 39
21 23 25 26 26 25 20 19 17 24 27 28 29 31 30 30 31 32 34 32 31 33 34 34 34 35 37
26 27 23 27 26 19 17 19 19 19 24 29 28 27 28 29 29 28 28 29 30 31 31 32 32 34 35
23 26 22 19 17 19 19 20 23 26 19 19 20 21 22 26 26 27 28 29 31 33 34 34 34 36 37
25 20 18 18 19 21 24 21 18 20 20 20 21 20 21 22 27 28 28 29 29 30 31 32 33 36 34
18 18 18 21 26 24 22 23 21 21 22 20 20 19 20 20 27 28 29 29 29 31 33 33 34 34 33
19 22 25 22 20 20 23 25 24 20 19 18 19 18 19 20 27 28 29 29 30 30 31 32 34 36 37
27 25 24 25 24 24 22 20 17 16 18 18 18 19 19 20 21 28 28 28 28 29 29 30 32 32 32
16 18 20 20 25 21 24 20 19 17 17 20 20 21 20 20 22 21 22 26 27 28 29 32 33 32 32
17 18 19 18 19 21 24 23 20 19 20 23 22 21 20 20 20 20 20 22 22 23 27 31 33 34 32
18 18 18 20 21 22 23 24 25 24 25 25 22 22 21 20 18 19 20 22 23 22 24 29 33 36 36
18 18 19 21 22 22 23 23 23 24 26 26 25 24 24 21 20 20 21 21 23 24 27 29 30 30 28
18 18 18 19 19 21 21 20 21 21 24 26 28 26 23 23 23 20 22 21 24 26 29 32 33 33 32
18 18 17 18 19 20 21 21 20 20 22 24 25 25 25 24 21 23 25 25 29 31 32 32 33 33 33
18 17 17 18 18 19 20 20 20 21 22 23 23 22 22 25 27 23 27 30 32 32 32 31 31 33 34
17 18 19 17 18 18 19 19 19 22 23 24 23 21 19 20 25 31 27 31 32 32 32 31 31 32 34

GFSFLT2_sfc_dewp_006.txt.gz
Dewpoint
23 24 23 21 21 23 25 25 28 36 32 30 29 29 30 31 32 34 36 35 37 38 38 39 40 41 40
24 22 21 22 23 26 24 27 27 26 28 28 29 29 30 31 33 33 34 33 35 35 36 38 39 39 40
21 22 23 26 25 26 26 23 18 24 27 27 28 29 30 31 30 31 31 32 34 33 35 35 35 36 38
22 25 26 27 23 18 16 19 19 19 25 26 28 28 28 28 28 28 28 28 29 30 31 31 32 33 34
27 25 21 17 16 18 18 20 22 21 19 19 20 20 21 26 25 27 27 29 29 31 33 34 34 34 34
22 18 16 17 18 20 24 21 18 21 20 22 22 20 20 20 25 27 28 29 29 30 31 32 32 33 33
17 16 17 21 26 24 22 22 20 21 22 21 20 18 19 18 25 27 28 29 29 31 32 32 32 32 33
19 22 26 22 20 20 23 24 23 19 19 19 19 17 18 19 26 27 28 28 29 31 32 32 33 34 35
28 25 25 26 25 23 22 20 17 16 17 17 17 18 18 19 20 26 26 27 27 28 29 29 30 31 29
16 18 20 20 25 21 22 19 19 17 16 19 19 20 19 18 20 20 20 26 27 28 29 30 30 28 30
16 17 18 18 18 20 22 22 20 19 20 23 22 20 20 19 19 20 20 21 23 24 28 30 33 33 30
17 17 17 18 20 21 21 22 24 24 25 25 22 22 20 19 18 20 21 24 25 25 26 29 32 34 36
18 17 18 19 20 20 21 22 22 23 24 24 24 24 23 22 21 21 24 24 25 26 27 27 27 28 28
17 17 17 18 18 19 20 19 20 20 23 24 25 26 23 23 23 22 25 23 26 28 30 31 32 34 33
17 16 16 17 17 19 20 20 18 18 20 23 25 26 26 25 23 25 26 27 31 32 32 32 32 34 33
17 17 17 17 18 19 19 19 18 19 21 23 23 23 23 25 28 25 28 29 32 32 32 31 30 33 34
17 17 19 17 17 17 17 18 18 20 22 22 23 23 20 19 25 28 28 30 31 31 31 31 31 31 35

GFSFLT2_sfc_dewp_009.txt.gz
Dewpoint
22 23 22 22 20 22 25 25 26 31 31 31 31 30 31 32 33 33 33 35 36 38 39 40 40 41 41
23 23 21 22 23 25 26 22 22 26 29 29 29 30 30 31 32 33 34 35 35 34 36 37 38 38 39
22 22 24 26 27 23 20 18 16 24 27 28 29 30 30 31 31 31 31 32 32 32 34 35 36 37 38
25 27 24 22 22 18 17 19 20 19 25 26 28 28 29 29 29 28 28 29 30 30 31 31 32 33 34
25 23 21 18 17 19 19 22 22 22 22 21 21 22 23 27 26 27 27 28 29 30 32 32 33 33 34
24 18 16 17 19 22 24 22 20 20 19 21 22 21 21 21 25 27 28 29 29 30 30 32 32 32 33
18 16 18 21 28 26 24 22 21 22 22 20 21 20 20 18 26 27 28 29 29 30 32 32 32 32 33
19 23 27 24 22 22 24 26 23 21 19 20 19 19 19 20 26 27 28 28 29 30 31 31 31 33 34
28 27 25 26 25 24 24 22 19 17 18 18 18 19 20 21 22 25 26 28 29 30 30 30 30 30 29
17 17 19 19 24 20 23 21 20 19 16 21 20 20 19 17 20 21 22 26 28 29 31 32 32 29 32
15 16 17 17 18 20 22 24 21 21 20 24 24 23 22 23 21 21 23 25 28 28 30 32 35 35 32
16 16 19 21 22 23 23 24 24 24 25 26 24 24 23 22 21 22 24 27 29 30 30 31 33 34 37
17 20 21 22 23 23 24 24 24 25 26 26 26 26 25 24 24 24 26 27 29 30 31 32 32 32 30
17 17 17 20 21 22 21 22 21 22 25 27 28 29 27 26 27 26 27 26 30 32 33 33 34 34 33
17 17 16 18 19 21 21 22 19 20 21 24 28 29 28 28 26 27 27 28 31 32 32 32 33 35 34
18 19 18 19 20 21 21 20 20 20 21 25 26 25 26 29 28 28 29 29 30 32 33 31 31 32 34
18 18 20 20 19 19 19 20 20 21 24 26 25 25 22 23 27 28 29 29 31 30 32 31 31 32 34

GFSFLT2_sfc_dewp_012.txt.gz
Dewpoint
18 19 20 21 20 22 23 23 25 29 30 30 30 31 32 33 34 34 34 35 35 37 37 38 39 40 42
21 21 20 22 23 22 20 17 18 22 27 29 30 31 31 31 32 33 34 34 35 37 36 37 38 38 40
21 23 25 25 24 21 18 17 16 24 27 28 30 30 31 31 32 32 32 32 33 33 33 34 34 35 36
25 29 26 24 22 18 16 20 20 19 24 26 28 29 30 30 30 30 29 30 31 32 32 32 33 34 35
31 26 23 18 15 18 19 22 23 23 23 22 22 22 24 27 27 28 28 29 30 31 32 33 33 33 33
27 21 16 15 18 21 25 24 22 22 21 21 23 22 23 23 26 27 28 29 30 30 31 33 33 33 33
20 16 17 19 27 29 25 24 22 22 23 22 21 21 22 19 26 27 29 29 31 31 32 32 32 33 33
18 20 25 27 25 22 24 25 24 22 21 22 20 20 21 22 27 28 29 29 30 31 32 32 32 32 33
26 29 27 26 25 23 25 24 21 19 19 19 19 20 21 22 22 24 26 29 32 34 35 34 33 33 32
19 18 20 20 24 21 25 25 23 21 18 22 21 20 21 19 20 23 24 28 29 31 34 35 35 33 34
16 16 17 18 19 22 24 26 24 23 21 24 25 24 24 24 22 23 25 26 28 29 32 33 34 36 33
16 16 20 24 25 26 26 26 26 26 27 27 25 25 24 23 22 23 25 28 31 32 33 34 35 35 35
17 22 23 24 26 26 27 27 27 27 27 27 27 27 26 25 24 26 27 29 31 32 33 34 33 34 33
18 18 19 23 23 24 24 24 23 24 27 28 29 29 27 28 27 25 29 28 31 32 33 33 34 35 34
19 18 17 20 22 23 24 24 22 22 24 26 29 30 30 29 27 28 28 29 31 32 32 32 33 34 34
20 21 21 21 22 23 23 23 22 21 23 25 27 27 27 29 30 29 29 29 31 31 33 32 31 32 35
22 22 23 23 21 22 22 23 23 23 24 27 27 27 25 22 26 29 28 29 30 31 31 32 31 32 34

GFSFLT2_sfc_dewp_015.txt.gz
Dewpoint
21 21 21 21 21 24 26 23 23 29 29 29 30 31 32 33 34 35 35 36 36 38 38 39 40 39 39
22 22 22 21 23 26 24 20 20 23 28 29 30 31 31 32 32 33 34 34 35 36 38 38 39 39 40
22 22 23 25 28 24 21 21 17 24 27 29 30 31 31 32 32 32 32 32 32 33 35 36 36 36 38
24 26 27 29 24 21 18 20 20 20 25 27 29 29 30 30 30 30 30 31 31 32 32 33 33 34 36
26 28 24 21 19 18 19 21 22 25 22 22 23 22 24 28 27 28 29 30 31 31 33 34 34 35 34
29 23 22 19 18 21 23 24 23 22 22 21 22 22 23 23 27 28 29 30 31 32 33 34 34 33 33
22 19 18 19 24 25 26 24 21 22 22 22 23 21 22 20 27 28 30 31 31 32 32 33 34 34 35
20 20 23 25 30 29 24 24 23 22 23 21 21 20 21 22 28 29 30 30 30 31 32 35 37 37 36
25 27 28 27 25 22 23 23 21 20 21 20 20 21 21 21 22 26 28 29 30 31 32 33 33 36 37
23 21 21 20 24 22 24 25 23 21 20 22 23 22 20 19 21 22 23 28 30 31 32 32 34 34 35
19 17 18 19 20 23 25 26 24 22 22 23 24 23 22 21 21 21 22 24 26 27 31 33 34 35 34
17 17 19 22 23 25 25 25 26 26 26 26 24 24 23 21 20 20 22 24 27 29 30 33 34 35 36
19 21 22 23 23 24 25 26 26 26 26 26 26 26 26 23 22 23 24 25 28 29 31 33 33 34 32
20 20 20 21 21 22 23 23 23 23 24 26 27 27 26 26 26 25 26 24 27 29 31 31 32 32 33
22 21 19 20 21 22 22 24 22 21 22 24 26 26 27 28 26 25 26 27 29 29 29 29 30 32 33
21 21 21 21 21 22 22 22 22 22 23 24 25 26 25 25 28 26 26 26 28 28 29 30 29 30 31
22 21 22 22 21 20 21 22 21 21 22 24 26 25 22 20 23 28 27 27 27 28 29 30 30 30 32

GFSFLT2_sfc_dewp_018.txt.gz
Dewpoint
20 22 22 22 22 22 23 26 26 31 30 31 30 31 32 33 34 34 35 36 38 39 39 40 41 40 40
22 22 22 22 22 25 27 25 22 26 29 29 30 31 32 32 33 33 34 35 35 36 38 38 37 38 39
22 23 23 24 26 30 24 20 20 24 27 29 30 32 32 32 32 32 32 33 33 33 34 35 36 37 38
23 25 26 27 27 22 20 20 20 20 24 28 30 30 31 30 31 31 31 31 32 32 32 33 33 34 35
25 24 28 22 21 21 19 19 20 23 25 22 22 22 23 27 27 29 30 31 31 32 33 34 34 34 35
28 23 21 21 19 19 20 21 21 25 21 21 22 21 23 24 28 29 30 31 31 32 33 34 34 35 36
22 21 19 19 22 23 24 27 24 22 22 21 22 22 22 21 27 29 30 31 32 32 32 33 34 35 36
21 20 22 23 26 29 26 23 22 22 22 22 22 21 21 22 28 29 30 30 30 31 32 32 33 34 34
25 27 28 27 25 22 22 21 20 20 22 21 21 21 21 21 22 27 27 28 29 31 31 32 33 33 33
23 22 22 21 24 21 23 22 21 20 19 23 22 22 19 19 20 21 22 26 28 29 30 31 32 30 33
18 18 18 18 19 21 23 24 23 21 22 23 23 22 22 20 20 20 21 22 22 24 28 31 32 33 33
17 17 19 21 22 23 23 23 24 24 25 27 25 24 22 21 19 20 21 23 25 26 27 30 32 33 34
21 21 21 21 22 22 22 23 23 24 25 25 25 25 25 22 22 23 23 24 26 27 27 28 29 31 30
20 20 21 22 20 21 22 21 21 21 23 24 24 25 24 24 24 23 24 24 27 27 28 29 30 30 30
21 21 20 20 20 21 21 22 21 19 20 22 24 24 25 24 24 24 24 25 27 28 27 27 28 29 29
21 20 20 20 20 21 22 20 19 20 20 21 22 22 23 23 27 25 26 26 27 27 27 26 27 29 29
20 20 20 21 21 19 19 20 20 19 20 21 23 23 21 19 23 28 27 27 27 27 27 27 28 29 30

GFSFLT2_sfc_dewp_021.txt.gz
Dewpoint
20 22 22 23 23 23 24 24 27 32 31 31 31 31 32 33 33 34 35 36 37 38 40 40 40 41 41
23 23 23 23 23 24 25 27 27 27 29 29 30 31 31 32 33 33 33 34 36 37 37 37 37 39 40
23 24 23 25 26 26 28 24 22 26 27 28 30 31 32 32 32 32 32 33 33 33 33 35 36 37 38
24 24 25 25 27 23 22 22 20 19 23 27 30 31 30 30 31 30 30 31 32 33 33 34 35 36 37
24 24 25 22 20 22 20 19 20 22 23 24 24 22 23 27 27 29 30 32 32 32 33 34 35 36 37
26 23 22 21 20 19 20 21 21 24 23 22 23 22 22 23 28 30 30 31 32 32 33 33 34 35 35
23 22 21 20 22 22 25 26 24 23 23 21 22 21 22 22 28 29 30 31 31 31 32 33 34 34 35
23 22 22 24 27 26 23 23 22 21 21 20 21 20 21 22 27 29 29 30 30 30 31 31 32 33 34
26 28 28 27 25 22 21 20 19 18 20 20 20 21 21 21 21 27 27 28 28 29 30 31 31 32 31
23 22 21 21 24 21 21 20 20 19 18 22 21 21 20 19 19 21 21 26 28 29 29 30 30 28 29
17 18 18 19 20 21 22 22 21 20 20 22 23 22 22 21 20 21 21 21 22 23 27 29 30 30 30
17 18 20 21 21 22 23 23 23 22 23 23 22 22 21 20 18 19 20 22 24 24 25 28 31 32 32
19 19 20 21 22 22 22 22 22 23 24 23 23 23 23 21 20 20 21 22 24 25 25 27 27 28 28
19 19 20 20 20 21 21 21 21 20 22 23 23 23 22 23 23 22 23 22 24 25 26 27 28 29 30
19 19 18 19 19 20 20 20 20 19 19 21 23 23 23 23 22 21 22 22 24 25 26 27 27 28 28
19 19 19 18 19 20 21 20 19 18 19 20 21 21 21 22 26 23 24 25 25 26 27 26 26 28 28
18 18 18 18 20 18 19 19 19 19 19 21 23 23 20 18 22 27 28 28 27 27 27 27 27 28 29

GFSFLT2_sfc_dewp_024.txt.gz
Dewpoint
20 22 23 23 23 24 25 24 26 31 32 32 32 32 32 33 33 34 34 36 37 38 39 40 40 41 41
22 23 23 24 24 23 25 25 26 30 31 31 31 31 31 32 33 33 33 33 34 35 36 36 37 38 39
23 24 24 24 25 25 26 26 24 27 28 29 30 31 32 33 33 32 32 33 33 33 33 34 35 37 38
23 23 24 25 26 25 21 22 21 20 24 27 30 31 31 31 31 31 31 31 32 33 33 34 35 36 38
24 23 24 22 21 21 21 20 21 23 23 23 24 25 24 28 28 29 30 31 32 33 33 34 34 35 37
19 24 23 22 21 21 21 21 21 24 23 22 23 22 22 23 28 30 31 31 31 31 32 33 34 35 35
24 23 22 22 22 22 23 25 23 23 22 20 21 20 22 22 28 29 30 31 31 32 31 32 33 34 36
25 24 24 24 28 26 23 23 22 21 20 19 19 19 20 21 27 29 30 30 31 31 31 31 31 31 32
27 28 29 28 25 23 21 20 18 18 19 19 19 19 20 20 21 28 28 28 29 29 30 31 31 31 30
20 19 21 21 25 22 21 19 19 18 18 20 20 20 19 20 20 21 21 26 28 29 30 30 30 27 28
17 17 18 19 20 22 22 21 20 20 20 23 22 20 21 19 20 20 20 21 21 23 27 28 29 29 28
17 18 19 20 21 22 22 22 23 22 23 23 21 20 19 18 17 18 19 21 22 23 24 27 30 31 31
18 19 19 20 21 21 22 22 22 23 24 24 24 22 22 19 18 19 20 21 23 23 24 24 24 26 26
18 18 19 19 19 20 20 20 20 19 22 24 24 24 21 21 21 20 21 21 22 23 24 24 25 26 27
18 18 17 18 18 19 19 19 19 18 18 20 22 23 23 23 21 20 20 21 22 23 24 24 26 27 28
18 18 18 17 17 19 20 19 18 18 18 19 20 21 21 23 26 22 22 22 24 25 27 26 26 27 28
17 17 17 18 19 17 17 18 18 18 18 20 22 23 20 17 21 26 27 28 27 27 27 27 26 27 27

GFSFLT2_sfc_dewp_027.txt.gz
Dewpoint
20 20 21 23 24 25 26 24 25 31 32 33 33 33 33 33 34 34 34 35 38 39 40 40 40 40 40
21 22 23 24 24 24 24 25 26 29 32 32 32 32 32 33 33 34 35 36 35 35 35 36 37 38 39
22 24 24 24 24 25 25 26 24 27 29 29 30 31 32 32 32 33 33 33 33 33 34 35 35 36 37
23 23 23 25 25 24 21 22 21 21 25 27 30 31 31 31 32 32 31 32 33 33 33 33 33 35 36
23 21 23 24 22 22 21 21 21 23 23 23 24 24 24 28 28 29 30 31 33 33 33 33 33 35 36
17 23 24 22 22 22 22 22 21 23 22 22 23 21 21 22 28 30 31 32 32 32 32 33 33 34 35
23 23 22 23 23 23 24 24 23 22 22 20 20 20 21 21 28 29 30 31 32 32 32 32 32 33 34
24 24 25 25 26 28 25 23 22 21 21 18 19 19 20 20 27 29 30 30 31 31 32 31 31 32 32
26 28 29 28 25 22 21 20 18 18 19 19 19 18 19 19 20 27 28 29 29 30 30 30 30 31 29
21 19 21 20 25 21 19 18 19 18 18 19 19 20 18 20 20 21 20 26 28 29 30 30 30 27 27
16 17 18 19 20 21 22 18 20 19 20 22 21 20 21 19 19 19 19 20 20 22 26 28 29 29 28
17 17 19 19 20 21 22 22 22 22 22 23 21 19 19 17 16 17 19 20 21 22 23 26 29 30 31
18 19 19 19 20 20 21 21 21 22 23 23 23 22 22 19 18 19 20 20 22 22 23 23 23 24 23
18 18 18 19 19 19 19 19 19 18 21 22 22 22 21 21 21 19 20 20 22 23 23 23 24 25 25
17 17 17 18 18 18 18 18 18 17 17 19 22 22 23 22 20 20 20 21 22 22 23 22 24 25 25
17 17 16 16 17 18 19 17 17 17 17 19 20 20 21 22 25 22 22 22 23 24 25 24 24 27 27
15 15 16 17 18 16 16 17 17 17 18 19 21 22 18 16 20 25 26 27 28 27 27 26 26 27 27

GFSFLT2_sfc_dewp_030.txt.gz
Dewpoint
20 20 20 21 23 24 26 25 25 31 32 32 33 33 34 34 34 34 35 35 37 38 39 41 41 41 41
20 21 22 23 24 24 24 24 25 29 32 32 32 32 33 33 33 33 34 35 35 36 37 38 39 38 38
21 23 24 24 24 24 24 25 26 28 29 30 30 32 33 33 33 33 33 33 33 33 34 35 35 36 37
22 22 23 24 24 24 22 22 22 22 26 28 30 30 31 32 32 32 32 32 33 34 34 34 34 35 35
22 22 22 24 23 23 22 22 22 23 23 23 24 24 24 28 28 29 30 31 33 33 33 34 34 35 36
17 22 23 23 22 22 22 22 21 23 22 22 23 22 22 22 27 29 31 32 32 33 33 32 33 34 35
24 23 22 22 22 21 23 24 23 23 22 21 21 20 21 20 27 29 30 31 32 32 33 33 32 33 34
24 24 24 24 25 27 25 23 23 22 22 19 19 19 19 20 27 28 30 31 31 31 32 32 31 32 33
26 27 28 27 25 22 20 19 18 17 19 19 19 18 19 19 20 27 28 28 29 30 30 31 31 31 30
20 19 20 19 25 21 18 16 18 17 18 19 18 19 18 20 19 21 20 25 27 28 29 30 30 27 28
16 17 18 19 19 21 21 16 19 19 19 22 18 20 20 19 19 18 19 19 20 21 26 27 28 28 27
16 17 18 19 20 20 21 21 21 21 21 22 20 17 18 17 16 17 18 20 21 21 22 25 28 30 30
17 18 18 18 19 19 20 20 20 21 23 22 22 21 20 19 18 18 19 20 22 22 22 23 23 23 23
17 17 18 16 18 19 18 18 18 18 20 20 20 21 19 20 20 19 20 20 21 22 23 23 24 24 24
16 16 16 17 17 18 18 18 17 17 17 19 20 21 21 21 20 20 19 20 22 22 23 23 24 25 25
15 15 15 15 16 17 19 17 16 16 17 18 19 19 19 22 25 22 22 22 23 24 26 25 25 27 26
13 13 15 14 18 16 17 17 17 17 18 19 20 21 18 16 20 25 25 27 27 26 26 26 26 27 27

GFSFLT2_sfc_dewp_033.txt.gz
Dewpoint
21 21 21 22 23 25 26 26 25 30 31 32 33 34 34 35 35 35 36 36 37 38 39 41 41 42 42
21 21 22 23 25 25 24 24 24 27 31 33 33 33 33 34 34 34 34 34 35 36 36 37 37 38 38
21 23 24 25 25 25 25 25 24 27 29 30 31 32 33 33 34 34 34 34 34 35 35 35 36 36 37
23 25 25 25 25 25 23 23 21 22 26 28 30 30 31 32 32 32 32 33 33 34 34 34 34 35 36
25 25 25 24 23 23 22 21 23 25 24 23 23 23 24 27 28 29 30 32 33 34 34 34 35 36 37
27 23 24 24 23 22 23 24 22 23 22 22 23 22 22 23 27 29 31 32 32 33 33 34 33 34 35
25 24 23 23 26 26 26 25 23 23 23 21 21 20 22 20 27 29 30 31 32 33 33 33 33 33 34
25 24 25 25 27 28 26 24 22 21 21 20 20 19 20 21 26 28 30 30 31 31 32 32 32 32 33
26 27 28 27 26 23 24 23 20 18 19 19 19 19 19 20 20 26 28 28 29 30 30 31 31 32 31
21 20 20 19 24 21 23 22 21 20 19 20 19 19 20 18 19 20 21 25 27 28 29 30 30 28 28
16 16 17 18 19 20 22 24 22 21 20 23 24 22 21 20 19 19 20 21 21 22 26 27 28 29 29
16 17 19 21 22 23 23 23 23 24 24 25 22 21 21 20 18 18 21 23 25 25 27 27 29 30 30
17 20 21 22 23 23 24 24 24 24 25 25 24 23 22 21 20 21 22 22 25 26 28 27 27 27 27
17 17 18 21 21 22 21 21 21 22 25 26 25 24 22 22 22 21 23 22 25 26 27 27 27 27 27
17 17 16 18 20 21 21 21 20 21 22 23 26 25 25 24 21 22 21 23 26 27 27 26 27 28 28
18 17 17 18 19 20 22 22 21 21 22 23 24 23 23 24 26 23 25 26 28 29 28 27 27 29 28
17 17 17 18 19 20 20 21 22 23 24 24 24 24 21 19 23 25 27 28 28 28 28 27 27 28 29

GFSFLT2_sfc_dewp_036.txt.gz
Dewpoint
26 26 28 29 27 25 26 24 24 29 31 32 32 34 35 35 36 36 36 37 37 38 39 39 41 40 42
31 31 31 31 29 26 24 23 24 27 30 32 33 34 34 35 35 35 35 35 36 36 37 37 38 38 39
31 29 29 30 30 28 26 24 22 27 28 29 31 32 33 34 34 34 34 35 35 35 36 36 37 37 38
27 28 30 30 29 26 23 23 21 19 24 28 30 31 32 33 33 33 33 33 34 34 35 35 35 36 36
29 30 29 25 22 23 22 21 21 24 24 23 23 23 25 28 28 29 30 31 32 34 35 35 35 35 36
30 26 22 22 22 22 22 23 22 24 22 22 23 22 23 24 28 29 30 32 33 33 34 34 34 34 34
25 23 22 22 26 27 25 25 24 24 23 21 22 21 23 21 28 29 30 31 32 33 33 33 34 34 34
25 24 24 24 25 28 27 26 23 22 23 23 21 20 21 22 27 28 29 30 31 32 32 32 32 33 32
26 26 27 28 27 24 24 25 22 20 21 21 20 20 21 22 22 26 27 28 29 31 31 31 32 32 31
20 21 21 19 22 22 25 25 23 22 21 22 21 21 22 21 21 22 23 26 27 28 29 30 30 28 29
18 15 16 19 20 21 23 26 24 24 23 25 26 24 24 24 21 22 23 24 24 25 27 28 29 29 29
13 16 19 24 26 26 26 27 26 27 27 28 25 25 24 21 21 21 23 25 27 27 30 29 30 30 31
17 22 25 25 27 26 28 27 28 27 27 28 26 24 23 22 22 23 23 24 27 28 29 30 30 29 28
19 19 20 23 23 25 25 25 25 25 32 31 29 28 24 24 24 23 24 23 26 28 29 29 29 27 28
20 19 18 20 22 24 24 24 24 24 26 27 31 30 28 27 24 23 22 23 27 28 28 28 29 29 29
21 22 21 22 22 23 24 24 23 24 24 25 26 26 27 27 28 25 26 27 29 30 30 28 28 30 30
22 22 21 21 21 22 23 23 24 25 24 26 28 27 24 22 25 28 27 28 28 28 29 29 28 30 31

GFSFLT2_sfc_dewp_039.txt.gz
Dewpoint
32 32 32 33 34 34 33 30 27 31 32 33 33 34 34 35 36 36 37 38 38 39 39 39 40 39 41
33 33 33 33 33 33 31 27 28 29 33 34 34 33 34 35 35 35 36 36 36 37 37 38 38 39 39
32 33 33 34 32 31 30 29 28 30 30 29 29 30 33 34 34 35 35 35 35 35 36 36 37 38 39
32 32 32 31 32 30 28 29 25 21 24 26 30 31 32 32 32 32 33 34 34 35 35 35 35 36 37
32 31 30 28 28 27 25 24 24 25 24 25 26 26 26 29 29 30 30 31 32 33 34 35 35 35 36
30 27 26 25 24 24 26 25 23 26 25 24 26 24 25 25 29 30 31 31 32 33 34 34 34 34 34
28 26 24 24 29 28 26 26 24 24 24 23 24 23 24 22 28 29 30 31 32 32 33 33 34 34 34
26 25 26 26 26 27 27 27 25 24 25 23 23 22 23 24 28 29 30 30 31 32 32 33 33 33 33
27 27 27 28 27 26 26 24 23 22 23 23 22 22 23 23 24 28 28 29 30 31 31 32 32 32 30
21 22 23 23 23 22 25 23 24 24 23 24 22 23 24 23 24 24 25 28 29 30 30 30 31 28 28
20 19 16 18 21 23 24 26 25 23 24 26 24 25 24 24 23 24 24 24 25 25 29 29 30 30 29
14 14 20 25 28 28 27 27 27 27 27 28 26 24 23 22 21 21 22 24 25 25 27 29 30 31 31
16 23 26 27 26 26 27 28 28 28 27 26 27 26 24 22 21 21 22 23 24 25 26 27 28 29 28
20 20 21 24 24 25 25 24 25 24 27 29 29 28 26 25 24 23 23 23 24 24 25 26 27 27 28
21 21 20 21 22 24 24 24 23 22 23 26 29 30 29 28 25 24 24 24 26 26 26 26 27 28 28
22 22 22 22 21 22 22 23 23 24 23 24 25 25 26 27 29 26 26 26 26 27 28 27 27 29 29
22 23 23 21 21 21 22 23 23 22 23 25 26 25 23 21 24 29 26 26 26 26 26 27 27 28 29

GFSFLT2_sfc_dewp_042.txt.gz
Dewpoint
34 34 33 33 35 36 36 36 35 37 36 34 34 35 35 36 36 36 37 38 38 39 39 40 40 39 39
33 33 34 35 34 34 33 31 29 30 33 34 35 35 35 34 34 35 36 36 37 37 38 38 38 38 39
33 33 33 34 34 34 32 31 29 32 33 32 30 30 31 33 35 35 35 36 36 36 36 37 37 37 38
32 32 33 34 33 32 30 30 30 27 25 27 29 30 32 32 32 32 32 33 34 34 35 35 35 36 37
32 32 31 30 29 29 29 27 25 25 25 25 26 26 27 29 29 29 30 31 32 33 34 34 35 35 36
31 27 26 26 27 25 25 23 21 25 24 23 25 25 26 26 29 30 31 31 32 32 33 34 34 34 34
28 27 24 24 26 25 24 23 23 25 24 23 24 24 25 24 29 29 31 31 32 32 33 33 34 34 34
26 26 25 26 25 24 25 25 25 25 24 22 23 22 23 24 29 29 30 31 31 31 32 32 33 33 33
26 26 27 27 27 25 21 18 20 22 23 22 22 22 23 23 24 28 29 30 30 31 31 32 32 32 31
20 22 23 21 23 23 22 12 14 16 23 20 22 23 19 24 23 24 24 28 29 30 30 30 31 28 28
20 19 18 17 18 20 22 17 12 21 24 26 13 18 24 23 23 23 23 23 24 24 28 29 30 29 29
15 13 16 19 22 23 26 26 27 25 26 28 25 22 23 22 21 21 22 23 24 24 25 27 29 30 31
15 18 19 19 19 19 21 27 27 27 28 28 26 25 25 23 22 23 23 23 24 24 24 25 25 25 25
20 20 20 18 19 20 19 24 24 25 29 29 26 25 25 26 25 23 24 23 23 25 25 25 25 26 26
21 21 20 21 22 23 24 24 23 23 23 25 28 29 29 29 26 25 24 24 25 25 25 25 26 27 27
23 22 22 22 22 22 24 23 22 22 23 24 25 26 26 27 29 26 26 26 26 27 27 27 26 27 27
22 22 23 22 21 21 21 21 20 21 22 24 24 24 21 19 22 28 25 25 26 26 26 26 26 26 27

GFSFLT2_sfc_dewp_045.txt.gz
Dewpoint
35 36 36 38 39 37 38 37 37 39 40 42 41 37 36 37 37 38 38 38 38 39 39 40 40 40 40
34 33 35 35 36 35 36 36 36 37 38 37 35 35 37 36 35 34 34 36 37 37 38 38 38 38 39
33 33 32 34 34 35 34 34 32 33 35 35 34 32 31 32 33 34 35 35 36 36 35 36 37 38 38
33 32 33 34 34 33 32 31 30 29 30 28 29 30 31 32 32 31 32 32 33 34 34 35 35 36 37
32 32 32 32 31 31 30 29 26 26 24 25 25 25 26 29 29 30 30 31 32 33 34 34 35 35 35
32 30 30 28 28 28 25 23 21 25 24 23 24 24 25 26 30 31 31 31 32 33 33 34 34 34 34
28 28 25 24 24 24 24 23 22 24 24 24 24 24 25 25 30 30 30 31 32 33 33 34 34 34 34
28 26 25 25 26 24 24 24 25 25 25 20 23 22 23 24 29 29 30 30 31 31 32 33 33 33 33
27 26 26 27 26 25 20 17 19 22 23 22 22 22 23 23 24 27 28 29 30 30 31 31 32 32 31
20 21 22 21 24 22 21 12 12 13 22 20 22 23 18 22 23 23 24 27 28 28 29 30 30 28 28
20 19 16 15 18 20 22 14 8 13 23 25 20 24 25 20 23 23 23 23 23 24 28 28 29 29 29
15 13 16 18 20 22 25 22 21 23 25 28 25 23 23 21 21 21 22 24 24 24 24 27 29 30 30
17 18 17 17 17 18 20 23 22 25 28 27 27 26 25 23 22 22 23 23 24 25 24 23 24 25 24
19 19 21 17 18 19 16 20 20 22 26 29 29 28 25 24 24 23 23 23 24 25 25 25 26 26 26
20 21 19 20 21 23 23 23 21 20 21 24 27 27 27 26 24 25 24 24 26 26 25 25 27 27 27
23 22 21 22 22 23 24 22 20 19 20 20 22 24 24 25 28 25 25 25 26 26 27 26 26 27 27
23 23 23 23 21 20 20 21 19 19 19 20 19 20 18 16 20 24 22 23 24 24 26 25 24 25 27

GFSFLT2_sfc_dewp_048.txt.gz
Dewpoint
36 37 37 40 42 39 40 40 40 44 44 43 43 43 44 43 39 39 39 39 39 39 40 40 41 41 41
34 34 35 37 37 37 38 38 38 39 41 41 42 42 39 38 38 38 36 36 36 37 38 38 39 39 39
33 33 33 34 33 35 35 36 36 38 40 40 39 39 38 35 34 34 35 35 36 36 36 36 37 38 39
34 33 33 33 34 34 33 35 34 34 32 32 31 31 32 32 32 33 33 33 34 34 34 35 35 36 37
33 33 33 32 31 33 32 31 29 29 26 25 25 25 26 28 29 30 31 31 32 33 34 35 35 35 35
32 30 31 31 31 30 28 24 21 25 23 23 24 24 25 26 29 31 31 32 33 33 34 34 34 34 34
30 27 26 24 25 22 23 20 21 23 24 24 25 24 25 25 30 30 31 32 32 33 33 34 34 34 34
28 26 25 25 25 23 23 23 24 25 25 19 22 22 23 24 29 30 30 31 31 32 33 33 33 33 34
27 27 26 26 27 25 19 16 19 21 23 22 22 22 23 23 24 29 28 28 29 30 31 31 32 32 32
21 21 22 21 24 22 21 10 11 13 21 19 21 22 17 21 24 23 23 27 28 29 30 30 31 29 27
19 18 15 15 18 20 21 13 6 10 21 23 20 25 24 21 22 23 23 23 23 24 28 30 30 30 26
15 13 16 17 20 21 24 21 19 19 22 23 25 24 23 22 20 22 22 23 23 24 24 27 30 31 31
16 17 16 16 15 17 19 22 20 22 26 27 26 26 25 23 22 22 22 22 23 24 24 23 24 24 23
19 19 20 15 17 21 22 22 16 20 23 23 28 27 25 25 25 22 22 22 20 22 23 25 26 26 26
20 20 19 20 20 20 23 23 19 17 19 20 23 24 25 24 23 23 22 23 25 26 26 25 26 27 27
21 23 22 22 21 23 23 19 19 18 18 18 15 16 19 22 26 24 24 24 25 26 26 25 24 25 26
23 22 22 22 20 19 18 19 19 18 18 18 8 11 16 14 19 22 21 21 22 22 24 24 23 24 25

GFSFLT2_sfc_dewp_051.txt.gz
Dewpoint
37 37 38 41 41 40 43 41 44 46 46 46 46 45 45 44 44 45 45 43 43 42 42 42 42 42 41
35 35 36 37 38 38 40 40 39 40 43 43 43 43 43 44 43 41 40 41 39 38 38 39 40 40 40
34 34 34 35 34 35 36 37 38 38 40 42 42 42 42 42 42 40 37 35 36 36 38 38 38 38 39
34 33 34 34 34 34 33 35 35 37 38 38 37 35 36 35 34 34 34 35 35 36 36 36 36 36 37
34 34 33 33 32 34 32 33 33 33 28 27 25 25 25 28 29 30 31 32 34 34 34 34 35 36 36
32 30 31 31 32 31 29 26 22 25 23 22 24 23 24 25 29 30 31 32 32 33 35 35 34 35 35
26 25 24 24 23 21 23 20 21 23 24 23 24 23 24 24 29 31 31 32 33 33 34 34 34 34 34
26 25 25 25 24 21 22 22 24 25 25 18 22 22 23 23 29 30 31 32 32 33 33 33 33 34 34
28 27 27 27 26 24 22 16 18 21 23 22 21 22 23 23 24 29 30 29 29 29 31 31 32 33 32
20 20 21 19 21 23 20 10 10 12 20 19 21 22 17 20 23 23 23 26 28 29 30 30 31 29 28
18 17 14 16 20 23 21 11 5 9 20 20 11 24 23 21 22 23 22 23 23 24 28 29 30 30 26
14 14 17 17 19 20 22 20 18 17 20 16 17 19 23 22 21 21 22 23 22 23 24 27 30 30 32
15 16 15 16 15 16 19 21 18 21 25 16 19 22 25 22 21 21 22 22 23 23 23 23 23 23 24
18 19 20 15 18 24 22 22 21 19 22 18 16 21 24 24 24 22 22 20 19 19 20 24 26 26 26
19 20 20 21 21 22 22 23 20 17 18 19 22 21 21 21 21 22 21 22 24 24 24 25 26 26 26
18 22 22 22 22 22 24 16 16 17 17 16 13 13 17 19 24 21 22 22 23 24 24 24 23 25 25
11 13 20 22 20 19 18 16 17 17 17 13 5 11 14 13 18 23 21 22 21 21 22 22 21 23 24

GFSFLT2_sfc_dewp_054.txt.gz
Dewpoint
38 38 38 40 40 41 42 43 44 49 49 47 47 46 46 47 46 46 45 46 47 46 46 47 46 46 46
35 36 36 37 38 39 40 40 40 42 44 44 44 44 44 44 44 44 44 43 42 43 43 41 40 40 41
35 35 34 35 35 35 36 37 38 39 39 40 41 43 43 44 43 43 43 42 40 38 37 37 38 39 39
34 34 34 34 35 34 34 36 35 38 39 39 40 40 39 39 38 36 35 35 36 36 36 37 37 37 37
33 33 33 32 32 33 32 32 33 34 30 28 26 26 25 28 28 29 30 30 32 34 35 35 35 35 35
25 27 27 27 27 27 25 22 21 24 23 22 23 23 24 24 29 29 30 31 32 31 32 33 34 35 35
25 24 23 23 21 20 22 19 20 23 24 23 24 23 24 24 28 30 31 32 33 33 34 33 33 34 34
25 25 25 24 24 21 22 21 24 24 24 16 22 21 22 23 28 30 31 32 32 33 32 32 33 35 35
28 27 27 27 26 24 19 15 18 21 22 21 21 22 23 23 23 30 31 30 30 30 31 31 32 32 33
19 19 19 17 21 23 19 9 10 11 19 18 20 21 16 20 22 22 23 26 27 29 30 31 31 29 29
16 15 15 20 22 23 21 10 4 8 19 18 7 18 20 19 22 22 22 22 23 24 27 29 30 30 27
13 15 17 17 18 19 21 20 18 16 19 15 10 12 9 18 20 21 21 22 22 23 24 26 29 30 30
15 15 15 15 14 15 18 21 18 20 25 14 12 10 19 20 21 21 23 22 22 22 23 22 23 23 23
17 19 20 14 16 24 23 18 18 18 21 16 11 13 21 22 22 21 22 22 18 18 20 22 24 24 25
18 19 20 21 21 23 23 22 21 13 17 19 21 19 18 18 18 19 20 20 22 22 23 24 25 25 26
14 14 16 17 18 21 23 22 16 16 16 15 12 12 14 18 23 19 19 20 21 22 23 23 23 24 25
6 6 10 11 19 14 17 18 15 16 16 12 3 7 12 11 17 23 20 20 21 21 22 21 21 22 23

GFSFLT2_sfc_dewp_057.txt.gz
Dewpoint
40 39 40 40 40 42 43 43 43 46 49 49 48 47 47 46 46 46 45 45 46 47 49 48 48 48 48
38 38 38 38 38 39 40 40 40 42 44 44 44 44 44 44 43 44 43 44 45 45 44 46 46 45 45
38 37 37 36 37 37 37 38 38 40 41 41 42 42 43 43 44 44 44 43 43 42 42 42 42 41 42
36 36 36 35 36 35 35 37 36 37 37 38 39 39 39 39 39 37 35 36 38 39 39 38 38 38 38
35 34 33 33 32 33 32 32 32 28 27 27 27 28 30 29 28 29 30 31 31 33 34 35 36 35 36
31 29 28 27 26 27 27 26 25 26 24 23 25 24 24 24 27 29 30 30 31 31 32 32 34 34 35
27 27 25 25 27 27 26 26 24 24 24 21 24 20 20 21 27 30 30 31 32 32 33 34 34 34 35
27 27 27 27 27 28 26 26 24 24 25 22 22 20 22 23 27 30 31 32 32 33 33 32 33 34 35
27 26 26 25 26 27 26 25 19 20 22 22 21 21 22 22 23 28 30 31 31 31 31 32 32 33 32
16 16 17 18 23 21 25 24 23 21 20 23 21 22 23 21 22 23 23 26 27 29 31 30 32 31 30
13 14 19 21 22 23 22 25 24 23 20 26 26 24 24 24 21 21 22 23 23 24 26 28 29 29 30
13 15 19 22 24 24 24 25 24 25 25 25 25 25 24 22 21 21 22 24 25 25 27 27 28 29 30
16 20 22 23 24 24 25 25 25 25 26 26 25 24 23 22 22 22 23 24 26 27 27 27 27 26 27
19 19 21 23 23 23 22 22 23 23 25 25 24 23 23 23 23 22 24 24 25 25 26 26 26 25 26
20 19 18 20 21 22 21 22 21 22 22 22 23 24 23 23 21 21 20 22 25 26 25 25 25 26 26
19 20 20 21 21 21 22 22 20 20 20 20 20 19 19 21 25 22 22 23 24 25 25 24 24 26 25
18 19 19 18 19 19 19 20 19 19 19 20 19 17 17 17 19 25 25 25 24 24 24 24 25 26 24

GFSFLT2_sfc_dewp_060.txt.gz
Dewpoint
42 42 42 42 42 42 43 43 44 45 46 47 47 48 48 48 47 47 47 46 46 46 47 47 48 49 49
41 42 41 40 40 40 40 40 41 41 43 44 44 44 44 44 43 43 43 43 43 44 44 45 46 46 46
40 40 39 38 38 38 38 38 38 37 39 40 41 41 41 41 42 42 43 43 43 42 42 42 43 43 44
38 38 37 36 36 35 36 37 35 33 32 32 34 35 37 37 37 35 35 36 38 39 40 41 41 40 40
37 36 35 33 33 33 32 31 31 28 27 27 27 28 29 29 29 28 29 31 32 34 35 36 36 38 37
35 32 31 29 27 27 26 25 26 27 23 21 23 22 23 24 25 29 30 31 31 31 32 32 32 34 35
25 25 24 25 28 29 27 26 23 22 22 19 19 17 19 18 25 29 31 31 31 32 32 32 34 34 34
27 27 28 28 28 29 26 25 23 21 23 21 20 20 22 23 25 30 31 32 32 33 33 33 33 33 35
26 26 26 26 26 26 27 24 19 16 21 22 21 21 21 22 24 26 27 30 31 32 32 33 34 34 35
17 15 16 18 23 19 23 26 23 24 21 24 23 23 26 22 22 23 24 23 28 29 30 32 32 32 31
11 13 17 20 21 23 23 29 27 26 23 26 27 26 26 26 23 23 23 24 24 25 27 30 31 31 31
11 12 17 22 24 25 25 26 26 28 28 28 26 26 25 23 24 23 24 26 27 27 28 28 29 30 31
13 20 23 25 27 27 28 27 27 27 27 28 27 26 24 23 24 24 24 25 28 30 30 30 29 29 29
17 17 19 24 23 24 24 24 24 24 28 29 28 26 24 24 25 24 25 25 27 28 29 29 28 27 28
17 17 16 19 21 23 23 24 23 23 24 25 26 26 25 25 23 22 21 23 28 30 28 27 27 28 27
20 20 20 21 22 22 23 23 23 22 22 22 23 22 21 23 26 23 23 25 28 28 27 25 25 29 27
21 22 22 21 20 20 20 21 21 21 21 23 23 21 19 19 22 27 26 26 26 26 27 27 28 29 28

GFSFLT2_sfc_dewp_063.txt.gz
Dewpoint
44 43 43 42 41 41 42 41 43 44 45 46 46 47 48 48 48 48 48 48 48 48 48 48 48 48 48
42 42 41 40 40 39 39 39 41 40 42 43 44 44 45 45 44 44 43 43 43 43 44 44 44 45 45
40 41 40 38 37 38 38 38 38 36 36 38 39 41 42 42 42 41 42 43 43 43 43 42 42 43 44
39 39 37 37 37 35 37 37 36 31 32 31 32 34 36 37 36 35 35 36 37 39 40 41 41 41 41
38 38 35 34 33 34 32 31 32 30 28 29 27 29 30 28 29 28 31 32 33 34 36 37 38 38 39
34 33 33 30 28 28 28 28 28 28 24 23 24 24 24 23 25 27 29 30 31 32 32 32 33 33 33
27 26 25 27 30 30 28 28 26 26 24 22 22 20 23 21 27 29 31 32 32 32 32 32 32 33 34
29 28 29 29 28 28 27 27 26 25 23 24 22 22 24 25 27 30 31 32 33 32 33 33 33 33 33
25 25 25 25 26 27 28 27 24 17 22 23 24 23 24 23 26 28 27 27 31 32 33 32 33 34 35
21 20 19 19 22 22 26 24 26 26 23 25 25 24 25 25 23 25 25 26 26 29 31 32 32 31 32
14 14 17 20 22 23 24 27 25 25 26 26 26 25 25 25 25 25 25 25 26 27 28 28 31 31 30
13 13 18 24 26 27 26 27 28 26 28 27 22 25 24 23 23 25 26 27 27 27 28 30 31 31 31
14 22 25 27 26 26 27 27 27 27 27 24 26 26 26 23 22 23 24 26 27 27 27 27 28 28 26
19 18 20 25 25 26 25 25 25 24 29 27 27 26 23 23 23 23 24 22 25 25 26 27 28 28 28
19 19 17 21 23 25 25 24 23 23 24 27 27 26 25 23 22 22 22 22 24 25 25 26 27 28 28
23 23 22 23 23 24 24 23 22 22 22 23 23 23 22 23 25 22 22 22 24 27 26 26 24 26 27
23 22 22 22 22 21 21 21 21 21 21 22 20 20 19 16 21 26 23 23 23 25 25 25 24 26 27

GFSFLT2_sfc_dewp_066.txt.gz
Dewpoint
43 42 41 40 40 41 41 41 43 43 44 46 46 47 47 47 48 49 49 49 49 49 49 49 50 50 50
41 41 40 37 37 38 38 39 39 39 41 43 43 44 45 45 46 45 44 44 44 44 46 46 45 46 47
38 39 38 36 36 37 37 35 38 35 35 36 38 39 42 43 42 41 41 43 44 44 43 43 43 43 44
38 37 37 35 36 34 32 34 32 29 30 31 31 33 35 35 36 35 35 36 37 39 40 40 41 42 41
36 36 35 34 31 31 28 27 28 27 25 24 25 25 28 30 31 31 31 32 33 34 35 36 37 38 38
34 32 30 27 27 25 25 22 22 25 22 21 22 20 21 20 24 29 30 30 31 31 32 33 33 34 34
24 24 25 26 26 25 25 23 24 24 22 20 21 20 23 23 29 28 31 33 33 32 32 32 32 32 33
28 27 27 27 27 26 25 24 25 24 22 18 21 21 23 24 28 29 29 29 31 33 32 33 33 33 33
24 24 25 24 24 25 22 20 20 18 22 22 23 23 23 24 26 27 28 28 27 30 33 33 32 33 34
21 20 19 18 20 21 21 14 18 18 23 21 24 24 19 26 25 25 25 28 27 28 28 31 32 31 29
14 14 15 19 20 23 24 18 14 15 26 21 14 19 17 20 24 25 25 24 25 27 29 29 30 30 31
13 12 16 20 22 23 25 24 23 20 24 22 12 13 13 21 20 24 24 25 24 25 25 29 31 31 32
13 19 20 21 20 20 23 24 23 24 26 18 17 16 23 23 22 22 23 23 24 23 23 23 24 25 24
19 18 20 19 20 21 19 20 18 21 26 24 21 19 24 24 23 22 21 19 21 22 24 25 26 27 27
19 18 18 20 23 21 21 18 16 16 19 23 26 23 23 16 18 21 21 21 22 23 21 24 27 27 27
19 19 18 18 19 19 18 16 15 18 18 18 18 24 21 21 26 22 22 21 22 22 24 26 25 26 26
14 13 13 14 20 16 16 16 15 15 15 14 11 9 14 17 19 23 21 17 20 23 22 23 23 24 25

GFSFLT2_sfc_dewp_069.txt.gz
Dewpoint
43 42 40 40 40 41 41 41 43 42 43 45 45 47 48 48 48 48 49 49 50 50 50 50 50 51 51
42 41 39 38 36 38 39 39 39 38 39 41 42 43 44 45 45 46 46 46 45 46 47 48 47 46 46
38 39 38 37 37 37 37 35 37 35 34 35 36 39 40 42 41 41 41 43 43 44 44 44 44 44 44
38 37 36 36 36 31 31 31 30 27 28 31 32 34 33 36 35 35 35 36 37 39 40 40 41 41 41
36 36 36 34 30 30 27 26 27 25 23 22 23 24 27 32 31 29 30 30 31 33 35 36 37 38 38
32 31 29 27 27 25 24 22 22 25 21 20 22 19 20 20 25 28 29 31 31 31 31 32 33 34 34
25 24 25 26 26 25 25 22 23 24 21 17 21 20 23 23 28 28 31 31 34 33 32 31 32 32 32
27 27 27 27 27 27 25 24 24 23 21 18 21 22 23 23 29 28 28 29 29 32 32 32 33 33 33
27 26 26 25 26 24 23 20 20 18 23 21 23 24 24 25 24 29 28 28 27 28 30 33 33 33 32
20 20 19 19 22 22 22 13 16 17 22 20 23 23 18 24 26 25 25 28 29 28 29 29 30 30 29
15 14 15 19 21 23 24 17 12 14 25 19 12 18 16 19 23 24 25 25 25 26 29 30 30 30 26
13 12 16 20 23 23 24 23 23 20 24 18 11 12 8 12 19 23 23 24 24 24 24 27 29 30 31
14 20 22 23 21 20 22 23 22 24 26 16 15 10 12 11 14 19 22 22 23 20 21 22 23 24 23
18 18 22 20 22 21 18 20 17 20 25 23 18 16 11 18 21 22 22 18 19 20 22 23 24 26 26
19 18 17 21 23 20 20 17 15 15 18 22 25 22 21 15 19 21 21 20 20 21 19 20 23 25 26
21 21 21 20 20 19 17 14 13 15 15 17 18 24 24 23 26 23 22 20 20 20 21 16 23 24 26
20 19 17 15 21 16 15 15 13 13 13 12 7 7 7 16 20 26 21 13 16 20 21 20 21 23 24

GFSFLT2_sfc_dewp_072.txt.gz
Dewpoint
43 42 40 40 40 41 41 41 42 42 44 44 44 46 48 48 48 48 48 49 50 51 52 52 53 52 52
42 40 39 38 38 39 39 39 39 38 39 41 41 42 44 45 45 46 46 46 46 47 48 48 48 48 48
38 39 38 37 37 37 37 35 36 33 34 34 36 38 39 40 41 41 41 43 43 44 45 45 45 45 45
38 37 37 36 36 32 34 30 29 25 27 30 33 35 34 35 36 35 35 36 37 39 40 40 42 42 42
36 36 36 34 30 31 28 26 26 24 23 22 22 22 29 32 30 29 29 30 31 33 35 36 37 38 38
34 33 30 29 27 25 25 23 23 25 21 19 21 19 20 19 26 28 30 33 33 31 31 31 33 33 34
30 28 26 26 26 26 25 23 23 24 22 16 22 21 23 23 29 29 31 31 33 33 32 31 31 32 32
27 27 27 27 27 26 25 24 24 23 21 18 22 22 23 24 30 28 29 29 29 30 33 32 33 32 33
30 30 31 30 27 26 24 22 20 19 23 21 22 23 24 25 24 30 30 29 27 28 29 31 33 33 32
22 20 19 20 23 22 24 19 21 20 22 21 22 22 17 23 25 25 25 30 30 30 31 30 30 29 29
16 15 15 19 22 23 24 21 16 17 25 20 12 17 15 18 22 24 24 24 24 25 28 30 31 30 25
13 12 16 21 24 25 25 25 24 22 25 19 11 12 7 11 18 22 22 23 23 24 23 26 27 28 29
14 19 21 23 23 25 25 25 22 23 25 15 15 9 9 10 12 17 22 22 22 19 21 21 22 23 21
17 16 22 24 24 24 21 21 17 21 25 22 14 13 9 15 15 17 21 18 18 18 20 22 23 24 24
19 18 18 23 24 23 21 16 16 16 19 22 24 21 19 15 21 22 21 20 20 19 19 19 21 23 24
23 22 21 22 22 21 18 15 15 16 15 17 17 22 22 21 26 23 23 22 19 19 20 15 20 22 25
22 21 21 21 22 21 20 20 18 18 15 14 7 9 10 15 21 27 23 14 15 18 19 20 19 21 23

GFSFLT2_sfc_dewp_075.txt.gz
Dewpoint
43 43 42 42 41 42 41 41 41 42 43 44 43 45 47 48 49 49 49 50 51 53 54 55 55 55 55
41 41 39 39 39 39 40 38 38 38 40 40 41 43 45 45 45 46 46 47 48 49 50 49 50 50 51
38 39 38 38 38 37 37 35 33 32 34 35 37 37 40 40 40 41 41 42 43 44 45 46 46 46 46
38 37 37 36 37 33 35 31 29 24 27 30 32 36 36 35 34 33 34 35 37 39 40 41 42 42 42
36 36 36 35 32 31 30 27 26 25 23 22 22 22 28 31 29 30 31 31 31 33 35 37 37 38 38
35 34 33 31 28 27 26 24 23 25 21 19 21 19 20 20 28 29 32 34 34 33 31 32 33 34 34
33 29 28 28 27 25 25 25 22 24 22 16 22 21 23 23 30 29 31 31 32 34 32 31 31 32 32
27 26 27 27 27 27 26 24 24 23 21 18 22 22 23 24 31 28 29 29 29 30 33 32 33 33 34
32 32 32 31 29 27 25 23 21 19 22 20 22 23 24 25 24 31 31 30 28 29 29 31 33 34 32
22 22 19 21 28 23 25 19 21 20 23 22 23 22 19 22 25 25 25 30 30 31 31 31 31 29 28
17 15 16 20 22 22 23 21 19 20 25 23 19 21 19 20 21 23 24 23 23 25 26 27 30 30 25
14 13 17 21 24 25 25 25 25 24 27 24 17 16 10 15 17 21 22 23 23 23 23 25 25 26 26
15 20 22 23 25 25 26 26 25 26 26 21 19 11 13 14 14 17 21 22 22 19 21 21 21 22 20
17 16 23 24 24 25 25 24 23 24 26 25 19 16 13 16 16 16 16 15 18 18 20 21 22 23 23
19 19 19 24 25 25 24 22 20 20 23 24 26 22 20 17 20 21 21 20 20 18 19 18 21 22 22
22 22 21 22 22 22 22 20 20 20 20 20 21 20 22 22 25 23 23 22 19 19 20 17 19 21 23
22 20 20 21 22 22 21 21 20 20 20 19 16 16 15 15 21 27 23 15 15 18 19 19 18 21 22

GFSFLT2_sfc_dewp_078.txt.gz
Dewpoint
43 43 43 43 42 42 42 41 41 42 43 43 43 44 46 47 48 49 49 50 52 52 53 55 57 58 58
41 41 40 40 40 40 40 38 37 37 40 40 41 44 44 43 44 45 46 46 47 49 50 51 53 53 54
39 39 38 38 38 38 37 36 30 32 35 37 38 38 41 40 39 39 40 42 43 44 45 47 47 47 48
39 38 37 37 37 35 35 32 29 24 27 30 32 36 36 36 33 32 33 35 38 40 41 42 43 43 43
37 37 36 35 34 33 33 28 26 25 24 22 23 22 28 27 29 31 32 33 32 34 36 38 39 39 40
36 36 35 34 31 30 27 23 24 26 22 19 21 20 21 24 29 30 33 34 34 33 31 33 34 35 35
35 33 32 30 28 25 25 25 23 25 23 18 22 20 23 23 30 30 31 30 33 34 32 31 32 32 32
29 28 28 28 28 27 26 25 24 23 21 20 21 21 24 24 31 29 29 30 29 31 33 33 33 35 35
33 32 32 31 29 26 26 23 22 20 22 20 22 22 23 25 25 32 31 31 28 30 31 32 33 35 32
22 21 22 26 30 24 27 24 23 22 22 23 23 22 21 23 25 25 25 30 31 31 31 31 31 29 28
17 16 17 22 22 22 25 23 19 20 25 23 22 24 22 23 21 23 24 24 23 24 26 28 29 29 26
15 13 16 21 24 25 25 25 25 24 27 24 20 22 20 17 19 21 22 23 24 24 24 26 25 25 26
16 20 23 24 25 25 26 26 26 27 27 25 25 17 16 15 18 19 22 22 23 21 22 22 22 23 21
18 16 22 23 24 25 24 24 23 24 28 25 21 19 15 17 17 16 19 18 20 20 22 22 22 23 23
20 17 18 24 25 25 24 22 18 19 23 25 26 23 22 20 20 21 21 20 19 18 20 19 21 22 22
22 21 21 23 23 23 21 20 19 19 20 22 23 21 22 24 25 22 23 22 19 19 20 18 20 21 22
22 21 20 19 22 20 19 18 18 18 17 18 15 15 13 15 22 27 22 20 18 20 19 19 18 23 22

GFSFLT2_sfc_dewp_081.txt.gz
Dewpoint
45 45 44 44 43 43 43 42 43 43 43 43 44 45 46 47 48 48 49 50 52 53 55 56 58 59 59
43 42 41 42 42 41 41 39 38 39 41 40 42 43 43 43 44 45 45 46 48 50 51 52 54 55 56
42 42 41 40 39 39 38 37 30 35 36 39 39 40 41 39 38 39 40 42 44 45 46 47 48 50 51
41 40 39 38 39 37 36 35 31 25 28 30 32 37 37 34 33 33 34 36 39 41 42 43 44 45 46
39 39 37 36 36 35 35 32 28 28 27 25 24 24 31 28 30 32 34 35 33 35 38 39 40 41 42
39 37 37 36 33 33 31 30 33 28 25 23 22 21 22 28 30 31 32 34 35 32 32 34 36 37 38
37 36 34 33 32 30 29 30 26 26 24 21 22 20 23 23 31 30 31 31 34 33 31 31 32 33 33
33 32 32 32 32 32 30 28 26 24 23 23 21 21 24 25 31 30 30 30 30 34 33 33 34 34 34
32 31 32 31 29 28 28 28 24 21 23 20 21 22 23 25 28 33 31 31 29 31 32 33 35 35 34
27 24 28 32 30 26 28 29 25 24 22 24 22 22 23 24 26 26 26 31 32 32 31 32 32 31 30
19 17 19 24 23 22 27 29 27 26 24 26 27 25 26 25 22 24 25 25 24 25 26 28 29 30 31
18 15 16 20 24 26 25 26 26 28 29 29 28 27 26 24 23 21 23 24 25 25 26 27 25 25 26
18 19 21 23 27 27 28 27 27 28 29 29 29 26 26 25 24 23 24 23 26 27 26 26 25 25 25
19 17 20 24 24 26 25 26 26 26 28 28 26 25 25 25 25 24 25 26 25 25 26 26 25 24 24
21 17 16 21 22 25 26 26 23 23 24 26 27 26 26 26 24 23 21 23 25 26 25 24 24 25 23
25 24 21 23 24 25 25 25 23 22 23 25 26 25 24 24 26 23 23 24 25 26 25 24 23 25 23
27 26 25 24 24 24 24 24 23 22 23 24 24 23 21 17 20 27 25 25 25 24 25 24 25 26 24

GFSFLT2_sfc_dewp_087.txt.gz
Dewpoint
49 48 48 48 45 45 45 44 44 45 44 44 44 46 45 45 46 47 47 48 50 51 52 54 55 58 58
48 46 46 45 44 43 41 39 39 42 42 42 43 44 43 42 42 42 44 45 46 47 49 51 52 55 58
46 46 45 43 42 41 40 38 34 40 40 41 40 42 41 38 36 36 38 41 43 44 46 47 49 52 54
45 44 43 42 42 39 38 38 34 29 34 35 36 39 38 34 33 34 36 36 38 41 43 44 45 47 50
43 42 41 39 38 39 38 36 34 33 32 33 33 35 37 31 30 32 34 35 35 36 40 41 42 43 45
41 40 40 39 38 36 35 33 34 33 32 33 28 30 28 29 30 31 31 34 35 33 35 37 39 40 42
39 39 38 38 37 35 34 34 34 29 31 31 27 26 26 24 31 31 31 31 34 33 31 33 35 36 37
38 39 38 37 37 36 35 34 32 29 29 28 24 23 25 27 29 31 30 30 32 34 34 34 34 34 35
33 34 34 36 36 35 35 33 30 26 26 24 23 24 24 25 30 32 31 30 31 34 35 36 37 37 36
33 33 34 33 31 31 34 32 31 27 26 27 23 23 24 25 29 31 32 33 34 33 33 33 33 32 31
27 28 30 31 28 26 29 33 30 29 25 29 28 27 28 27 25 27 27 28 28 30 30 29 29 31 32
22 20 23 28 28 28 27 29 30 31 28 30 28 28 28 26 26 24 26 27 28 28 30 28 29 28 29
23 26 28 30 29 28 28 29 29 30 30 27 28 25 26 25 25 25 26 26 28 28 28 28 28 29 28
24 25 27 28 27 28 27 27 27 27 29 28 26 24 24 25 25 24 26 24 26 27 27 28 27 26 27
25 22 22 25 26 28 28 27 25 26 26 27 28 27 26 23 22 25 24 24 26 26 25 24 27 28 27
28 25 22 24 25 27 28 26 25 25 25 26 25 24 25 26 28 24 24 24 25 26 25 21 23 28 27
29 29 27 26 25 26 26 26 25 25 25 26 24 22 19 19 26 29 22 24 24 24 24 24 22 25 28

GFSFLT2_sfc_dewp_090.txt.gz
Dewpoint
47 46 46 46 45 45 45 44 45 45 45 44 44 46 45 45 45 45 46 46 47 49 50 51 53 54 58
46 45 45 44 44 43 42 40 40 42 43 43 43 45 43 42 41 40 41 43 45 46 48 49 51 53 56
43 45 42 43 42 42 40 39 35 41 41 41 41 42 43 38 37 36 37 38 41 44 45 46 48 50 53
45 43 42 42 42 39 39 39 36 31 35 36 39 39 39 35 33 34 36 36 37 40 42 43 45 47 49
42 41 40 38 38 39 38 37 36 34 32 33 33 34 38 34 31 33 33 35 36 35 39 41 42 44 45
40 40 40 39 39 37 36 34 34 34 32 32 31 31 29 29 30 31 31 33 35 34 34 37 39 40 42
38 38 38 38 37 35 34 34 34 31 32 31 27 26 24 27 31 31 31 31 34 33 32 34 35 37 38
39 38 38 38 37 36 35 34 30 28 29 28 23 23 25 25 30 32 30 30 33 34 34 34 35 37 38
35 37 38 38 37 36 34 32 31 27 26 24 22 22 23 24 27 32 31 31 32 35 35 36 36 36 35
31 33 34 34 37 31 31 32 29 21 25 23 22 22 20 24 29 30 31 33 35 34 34 34 33 32 31
30 29 29 28 26 27 30 28 22 21 26 27 18 22 23 22 25 28 27 29 29 29 30 29 29 31 31
24 25 26 26 24 25 27 27 27 26 25 27 22 19 17 18 21 24 25 26 27 27 27 28 29 29 29
23 22 23 25 25 24 25 27 26 27 28 26 18 17 18 17 20 21 23 25 25 24 25 26 26 27 26
23 24 26 24 23 23 21 22 20 22 28 23 19 18 16 18 18 19 20 20 22 23 24 24 26 26 26
24 24 25 25 25 24 24 22 20 23 25 24 26 24 21 19 17 21 22 22 21 21 22 21 24 27 27
25 24 23 23 24 24 22 20 22 23 23 23 21 19 21 24 27 21 21 21 21 24 23 16 20 25 27
26 23 22 22 24 25 22 22 24 23 22 21 18 13 12 15 24 29 18 19 20 22 22 21 17 22 28

GFSFLT2_sfc_dewp_093.txt.gz
Dewpoint
46 46 45 45 45 46 45 44 46 46 45 45 44 45 45 44 44 43 44 45 46 47 48 49 50 53 54
44 43 44 46 45 44 43 42 42 42 45 44 43 45 44 42 40 40 39 40 43 45 46 48 49 51 53
43 44 43 43 42 42 41 40 37 41 43 42 42 43 44 39 37 37 37 38 39 41 44 45 47 49 51
44 43 42 42 42 40 39 39 38 34 38 37 41 40 43 37 34 34 35 35 37 38 41 43 44 46 48
41 42 41 39 39 39 39 37 38 36 32 34 36 35 39 36 32 33 33 34 36 35 37 40 42 43 45
41 41 40 39 37 36 36 35 35 36 33 33 32 32 34 31 32 31 32 32 35 34 33 37 39 41 42
40 41 39 38 38 36 35 35 35 33 33 32 28 28 26 29 31 31 31 31 34 34 33 35 36 37 38
40 39 38 38 37 37 36 34 30 29 31 31 25 24 25 25 30 31 31 31 34 35 36 36 39 39 39
38 40 41 41 39 36 33 33 31 29 27 26 22 22 23 23 26 30 31 31 33 34 34 35 36 35 35
32 35 38 38 40 34 33 31 31 26 25 23 22 22 19 24 28 29 30 33 35 34 34 33 33 31 31
30 30 30 30 29 30 31 28 28 21 26 24 17 21 20 21 25 28 28 29 29 30 31 30 30 31 30
29 29 28 27 25 27 29 28 27 26 27 23 18 19 15 16 21 24 25 26 26 26 26 29 30 30 29
26 26 26 27 25 25 26 27 26 27 28 28 19 16 16 14 19 20 23 25 24 23 24 25 25 25 24
26 23 25 25 24 24 23 22 20 25 28 27 23 18 15 17 17 18 19 18 21 22 23 24 26 27 26
24 25 24 25 25 24 24 20 17 22 24 24 27 25 22 21 18 20 22 21 20 20 22 20 23 26 26
25 25 25 25 25 24 22 19 18 20 21 22 22 21 24 25 27 21 21 21 20 23 23 15 19 23 26
27 27 26 25 26 24 24 22 19 19 20 21 19 18 19 18 25 28 19 18 20 21 21 20 16 22 27

GFSFLT2_sfc_dewp_096.txt.gz
Dewpoint
47 46 46 46 46 46 46 45 45 47 46 46 45 45 45 45 43 43 43 44 45 46 47 48 48 50 52
45 45 45 45 44 45 44 44 42 44 45 46 45 45 45 43 41 39 39 40 40 42 45 46 47 48 51
44 44 44 44 43 43 42 40 39 41 44 44 44 45 45 42 38 37 36 36 38 39 41 44 45 47 48
44 43 42 42 42 40 40 40 39 36 40 40 40 43 43 41 36 34 34 34 36 37 38 41 43 44 46
41 41 41 40 40 40 40 39 39 38 34 35 37 37 38 39 34 34 33 33 35 35 35 39 41 42 44
40 41 41 39 38 38 37 35 35 35 33 32 33 33 35 36 34 33 32 32 33 35 33 36 38 39 41
43 41 39 38 38 36 33 33 35 34 33 33 31 31 29 29 33 32 32 31 33 34 33 34 37 40 40
43 41 40 40 39 37 36 34 31 32 33 31 26 27 26 25 30 31 32 31 33 35 36 38 38 38 39
42 42 42 42 39 36 33 34 31 29 29 28 23 22 23 23 25 31 33 31 33 33 33 34 35 35 34
36 38 41 41 41 36 34 34 32 30 28 26 22 23 21 23 27 29 30 34 34 35 34 33 33 30 29
31 32 32 34 35 33 33 32 28 26 27 25 21 23 20 22 25 28 28 29 29 30 32 30 31 31 28
30 30 31 30 28 29 31 29 28 30 28 25 21 22 18 16 21 24 25 26 26 26 26 29 30 30 30
27 28 29 28 27 26 27 28 28 28 28 24 22 17 18 15 19 20 23 24 24 22 23 24 25 25 23
28 27 27 25 25 25 24 25 24 26 28 28 20 21 15 15 15 16 18 18 21 21 23 24 26 26 26
27 24 26 26 25 23 24 22 19 23 25 26 26 24 20 19 16 20 21 21 20 20 22 20 23 25 26
29 27 25 26 25 23 22 22 18 21 21 24 23 19 20 22 25 21 20 22 21 23 22 15 18 22 25
30 29 27 25 26 24 23 22 21 21 19 21 19 14 12 12 23 28 21 20 21 21 21 20 16 21 26

GFSFLT2_sfc_dewp_099.txt.gz
Dewpoint
47 47 47 48 47 47 47 46 47 49 48 48 47 46 46 46 44 43 42 42 43 44 45 46 47 47 48
45 45 46 46 46 45 45 45 44 46 46 46 46 46 46 44 42 40 39 39 40 41 42 45 46 47 48
44 45 44 46 44 44 43 41 41 42 44 46 46 45 46 45 40 38 36 36 36 38 39 42 44 45 46
44 43 43 43 44 42 41 41 39 37 41 42 43 43 44 45 40 35 34 34 35 37 35 39 42 43 45
43 42 41 41 42 41 41 39 39 39 37 38 38 39 39 44 37 35 34 33 33 35 34 36 39 41 43
42 43 41 41 41 40 38 36 36 39 37 35 34 34 36 38 37 35 33 32 32 34 34 35 37 39 40
44 43 42 40 40 36 35 35 36 34 35 33 33 32 33 34 38 35 33 31 32 34 34 34 39 39 41
46 44 44 42 42 39 38 34 32 33 34 31 28 30 27 27 33 33 33 31 33 35 36 36 37 38 38
46 45 45 45 41 38 35 36 32 31 32 32 25 25 24 24 25 33 32 32 33 34 33 33 35 34 33
40 42 43 43 42 40 37 37 32 31 30 29 23 23 22 23 25 28 30 33 33 35 34 33 33 29 29
37 35 37 38 38 35 36 37 32 32 29 26 23 23 22 23 26 29 29 30 31 33 33 30 32 30 27
33 34 34 35 35 32 32 30 31 33 30 26 23 23 19 17 22 25 26 26 28 27 26 29 31 31 31
32 32 32 31 30 29 28 28 28 29 29 25 23 18 20 17 19 20 24 25 24 23 23 24 25 24 23
32 30 29 26 26 26 27 26 25 26 29 25 18 21 15 15 18 18 18 18 21 21 23 24 26 26 26
29 27 28 27 27 25 25 23 22 26 25 26 25 24 20 20 18 20 21 20 20 20 22 21 24 25 25
30 29 28 27 26 25 23 22 22 22 24 25 25 20 21 23 24 22 19 22 20 22 23 18 20 23 25
31 30 30 29 27 25 24 24 21 21 18 21 17 17 14 15 22 26 20 19 21 21 22 23 19 22 27

GFSFLT2_sfc_dewp_102.txt.gz
Dewpoint
48 48 49 49 49 48 49 49 51 52 50 49 49 48 48 48 47 45 43 42 43 43 44 44 46 47 47
45 46 47 49 48 47 47 47 47 50 49 49 48 48 47 46 44 43 41 40 40 40 41 42 45 46 47
44 45 45 47 46 46 45 44 44 46 48 48 47 47 47 46 43 41 39 37 37 37 37 39 42 44 46
45 45 43 45 46 43 42 42 40 40 44 45 46 46 47 47 43 40 37 35 35 36 36 35 39 42 44
44 42 43 43 43 43 43 41 41 39 38 40 41 42 43 44 42 39 37 35 34 34 34 34 37 40 42
47 45 44 44 44 42 39 38 37 40 38 37 39 38 39 40 40 39 36 34 33 34 34 34 36 40 41
48 47 45 44 43 41 38 37 37 36 37 36 34 35 35 37 41 39 36 34 32 34 34 35 38 38 39
50 49 47 45 43 43 42 38 34 35 35 34 31 32 30 30 40 39 36 34 33 35 36 36 35 37 36
47 47 46 46 45 41 38 37 33 33 34 33 27 27 26 25 27 36 35 34 34 36 35 34 35 34 33
43 45 46 45 44 43 39 38 33 32 32 31 25 25 25 24 25 28 31 34 34 35 34 35 34 29 29
38 39 40 42 42 39 40 40 34 33 32 29 27 25 25 24 26 28 30 31 32 34 34 32 34 30 27
36 36 37 37 36 35 34 33 32 34 33 28 24 24 22 21 23 27 27 28 29 29 27 30 32 32 31
35 35 35 35 33 31 30 30 30 31 31 28 25 21 23 23 22 22 25 26 24 24 23 25 25 25 24
35 33 32 32 32 31 29 29 29 27 28 25 23 22 16 17 18 20 18 20 22 21 24 24 26 26 25
32 31 31 31 31 30 30 29 28 26 26 26 24 23 21 19 16 19 20 19 20 21 23 21 24 26 25
32 32 31 31 29 28 28 30 27 27 26 26 25 19 21 23 24 21 19 20 19 23 23 17 19 22 25
32 32 31 30 30 28 28 28 26 26 26 26 23 17 15 17 21 26 18 19 22 22 22 21 18 21 24

GFSFLT2_sfc_dewp_105.txt.gz
Dewpoint
50 50 51 52 52 53 53 54 55 55 54 52 52 52 52 52 51 49 48 47 46 46 46 45 45 46 47
48 47 49 51 51 50 49 50 52 53 52 51 51 50 50 49 48 47 45 44 43 43 43 43 44 45 46
45 46 46 49 47 47 47 47 47 50 52 51 50 49 49 48 47 45 43 42 40 39 39 39 40 42 44
47 45 45 46 47 45 43 44 44 46 48 48 49 48 48 48 46 44 42 40 39 38 38 36 36 40 42
46 44 43 44 45 45 45 43 42 41 44 46 47 47 47 48 46 43 40 38 38 37 37 35 35 38 40
48 46 46 46 46 45 43 40 39 42 41 42 44 44 44 44 45 42 41 39 37 36 36 34 35 39 41
50 48 48 47 46 43 43 43 43 40 42 40 39 40 40 40 44 42 41 38 37 36 35 33 38 38 37
50 51 50 48 47 46 45 43 37 39 41 37 36 37 36 37 43 42 40 38 36 35 36 38 36 36 36
47 49 49 48 48 45 41 39 34 34 37 35 32 31 31 32 35 42 40 38 36 36 38 36 36 36 36
45 46 47 47 46 45 42 41 34 33 35 34 31 31 31 27 30 35 37 37 35 37 36 36 35 31 32
42 42 43 44 45 45 42 43 39 36 36 34 32 30 31 26 26 28 32 34 34 36 35 35 35 31 31
38 38 39 40 42 40 41 41 40 36 38 34 32 32 29 26 26 27 30 33 34 34 34 32 34 33 30
36 37 38 39 35 33 33 32 33 36 37 34 34 32 32 30 27 28 28 30 32 34 32 32 32 31 33
37 36 33 33 33 32 32 33 31 28 28 32 33 32 30 29 29 29 30 31 31 32 32 31 29 27 27
35 32 33 33 32 32 32 32 31 28 27 25 26 28 30 28 27 28 26 26 31 32 30 29 28 28 26
35 33 33 33 33 32 33 33 30 29 27 25 26 26 26 26 27 26 26 26 28 30 30 30 28 29 27
33 33 33 32 32 30 31 32 30 30 28 27 27 29 26 23 26 26 28 27 28 28 28 27 29 29 26

GFSFLT2_sfc_dewp_111.txt.gz
Dewpoint
55 57 55 55 55 56 56 56 57 56 57 57 56 56 57 58 58 58 57 56 55 54 53 52 51 50 49
55 53 54 54 55 55 55 55 56 55 56 56 55 55 56 57 56 56 55 54 53 52 51 50 49 48 48
53 53 53 51 51 52 53 53 53 53 55 55 56 56 56 55 55 54 53 52 51 50 49 48 47 46 45
48 48 47 47 49 47 46 46 49 50 53 55 55 54 54 54 53 51 50 50 49 47 46 45 43 41 41
45 46 45 45 45 47 47 46 45 46 49 50 51 51 52 52 50 49 49 48 47 45 44 42 41 39 38
41 43 45 47 47 46 45 41 40 44 46 47 50 49 50 50 49 48 48 47 46 44 42 42 40 38 38
39 41 44 46 48 45 45 43 44 43 47 45 45 46 48 48 49 48 47 46 45 43 42 41 39 37 38
35 37 41 43 43 44 47 46 42 41 47 44 43 45 46 47 49 47 46 45 44 43 42 40 38 37 39
36 37 38 41 42 43 42 43 41 37 43 41 37 39 40 41 47 47 46 45 45 44 42 40 38 39 38
30 32 35 37 41 41 43 42 42 36 38 40 34 34 34 35 39 46 45 46 45 43 41 39 39 37 36
28 30 32 34 36 40 42 42 42 42 39 42 35 34 34 31 35 41 43 43 42 41 41 39 39 37 34
29 30 31 33 34 36 38 41 43 44 40 43 34 39 35 30 31 35 40 42 40 38 37 39 39 38 35
28 29 31 33 34 36 37 36 36 36 38 41 40 38 39 35 30 33 36 37 38 37 37 36 35 34 32
28 30 30 31 32 35 36 37 35 37 33 37 39 37 37 36 34 33 36 33 36 36 36 35 34 33 32
26 27 28 30 31 34 35 35 33 35 31 31 33 36 35 34 34 34 34 33 35 35 34 33 33 32 33
26 28 29 30 30 32 33 33 32 33 33 29 32 31 31 32 34 34 34 33 34 34 34 32 31 31 29
27 27 29 31 31 31 32 32 32 33 33 30 32 33 30 30 29 35 33 33 33 33 33 31 30 30 28

GFSFLT2_sfc_dewp_114.txt.gz
Dewpoint
52 57 56 57 57 58 57 58 57 56 58 58 57 57 57 57 58 58 59 60 60 60 58 56 55 53 52
47 50 54 56 56 56 56 56 57 56 56 57 56 56 56 56 56 57 58 58 58 57 57 55 54 52 51
45 48 51 51 52 53 53 54 54 54 56 56 56 56 56 55 55 56 56 56 55 54 54 53 53 51 50
42 44 47 48 48 48 48 48 50 50 52 54 55 55 55 55 55 54 54 54 53 53 52 51 50 49 48
38 39 41 44 46 47 47 48 46 47 49 51 52 54 54 55 54 52 52 52 52 51 50 49 47 46 44
35 36 38 41 43 44 45 42 41 45 46 48 50 50 52 53 52 51 51 51 50 49 48 47 44 43 42
33 33 34 34 38 38 39 41 43 45 45 45 45 46 49 50 51 50 50 49 49 48 47 45 44 42 41
31 32 32 34 36 37 39 39 42 42 45 42 42 44 45 47 50 49 49 48 47 46 45 44 43 41 40
30 31 32 33 34 34 35 35 36 39 41 41 38 40 39 43 47 49 48 47 47 46 45 44 42 40 39
27 28 29 30 33 34 35 35 35 36 38 39 36 35 35 37 39 47 47 47 46 46 45 44 42 38 36
27 28 28 31 32 34 34 34 34 34 39 39 35 34 35 33 35 41 46 45 45 44 45 43 42 39 36
27 27 28 29 30 32 33 33 35 36 38 40 35 39 35 32 33 35 42 44 43 42 42 42 41 41 38
26 26 26 27 28 29 31 32 32 35 37 38 39 39 40 39 35 33 38 40 42 41 40 39 39 39 36
26 27 26 24 27 29 29 31 31 32 34 36 37 38 38 39 38 33 38 36 39 39 38 38 38 37 35
26 26 26 25 26 28 29 30 30 30 33 33 34 36 38 37 36 36 37 35 38 38 37 35 35 35 34
26 26 25 25 25 27 30 29 29 29 32 34 32 32 31 32 37 35 36 36 36 36 36 34 33 34 34
24 25 24 25 25 25 27 28 30 31 31 33 32 32 31 31 31 35 35 35 35 34 35 34 32 32 33

GFSFLT2_sfc_dewp_117.txt.gz
Dewpoint
47 49 49 49 52 56 59 59 59 57 58 58 58 58 58 58 58 59 59 60 61 62 63 62 60 58 56
42 44 46 49 51 51 55 57 58 57 57 57 57 57 57 57 57 57 57 58 58 60 61 60 59 57 56
39 42 45 47 48 50 50 51 53 52 56 56 56 56 56 56 56 55 55 55 56 57 58 58 57 57 55
37 38 40 41 45 45 45 48 48 50 51 53 54 55 55 56 55 54 53 54 55 56 56 55 54 54 54
34 35 35 38 37 39 39 41 43 47 48 49 51 52 53 53 53 52 52 53 54 55 55 54 53 53 52
32 32 32 33 35 35 36 36 38 45 44 45 49 49 51 52 53 52 52 53 53 54 53 52 51 51 50
30 29 30 31 32 32 33 34 35 38 39 40 45 46 49 50 51 52 52 52 52 51 51 50 49 48 47
29 30 31 31 31 31 32 33 35 35 38 39 43 44 46 47 49 50 50 50 50 49 49 48 47 46 45
32 32 31 31 31 31 31 31 29 31 35 38 39 39 40 42 46 50 50 49 49 49 48 47 46 46 44
29 28 29 29 31 32 32 32 31 29 34 35 36 37 37 38 40 46 48 49 48 48 47 46 45 41 38
26 27 27 28 30 31 32 31 29 30 32 34 35 35 34 36 35 39 45 46 46 47 47 46 44 40 37
25 26 26 26 27 28 28 28 29 30 31 32 32 34 34 35 35 35 40 44 45 43 44 45 44 42 40
25 25 26 27 27 25 27 28 29 30 31 32 34 33 35 34 35 34 36 38 43 42 42 42 41 40 39
25 26 26 23 24 25 25 26 28 28 29 32 34 34 32 33 36 37 37 36 40 41 41 41 41 40 39
25 25 26 25 26 25 25 25 26 28 28 28 32 34 35 35 34 37 38 38 39 40 38 38 39 39 38
24 23 23 24 24 23 25 23 23 24 26 29 30 32 32 33 37 35 37 38 37 39 38 37 36 37 37
16 17 21 22 23 22 22 23 23 25 26 28 31 30 28 27 33 37 36 37 36 36 37 37 34 34 36

GFSFLT2_sfc_dewp_120.txt.gz
Dewpoint
42 43 43 45 48 49 50 52 54 56 57 58 57 58 58 58 58 59 59 60 61 61 61 61 62 62 62
38 40 40 44 45 43 48 49 51 51 53 54 56 57 57 57 57 58 57 58 59 60 60 60 61 62 61
36 38 40 41 41 43 41 44 43 46 49 52 53 54 56 56 56 56 56 56 56 57 57 58 59 60 60
35 35 37 38 36 36 35 37 38 39 48 49 50 51 53 54 55 53 53 54 55 55 55 55 56 58 59
32 32 32 32 32 33 32 34 35 44 40 42 44 45 49 51 52 51 52 53 53 54 55 55 55 56 57
29 29 29 30 31 32 32 30 29 38 34 34 36 40 44 48 50 51 52 52 52 52 53 54 55 55 55
28 28 28 29 30 30 29 29 29 32 34 33 36 38 42 46 49 50 50 51 51 52 52 52 54 54 53
29 29 30 31 31 30 30 31 31 32 34 31 35 35 38 43 46 48 49 50 50 51 51 52 52 51 51
32 33 32 30 31 30 29 28 27 29 32 31 34 33 36 38 41 45 47 49 50 50 51 50 49 49 49
30 31 28 29 30 30 29 28 26 26 30 28 29 32 33 36 37 40 43 48 49 49 49 49 48 47 45
29 27 26 27 28 29 29 27 26 25 28 28 27 28 29 30 36 36 39 42 46 48 49 48 47 45 42
26 24 25 25 25 26 27 27 28 27 28 29 29 28 27 26 28 32 34 38 42 42 44 47 47 45 43
26 25 24 25 26 25 26 26 26 27 29 29 30 30 29 29 29 29 31 33 38 40 40 43 43 42 40
27 27 26 22 25 26 24 26 24 24 27 29 29 30 30 31 32 30 31 31 35 40 40 41 42 42 40
27 24 24 26 25 24 25 23 22 22 22 24 27 28 30 30 30 32 32 32 33 37 38 39 40 41 40
24 23 23 23 22 23 23 21 21 22 22 23 24 26 27 30 33 31 32 32 33 35 38 38 37 39 40
21 19 19 18 23 20 20 20 21 21 22 24 25 25 24 23 26 35 32 32 31 33 37 38 38 37 38

GFSFLT2_sfc_dewp_123.txt.gz
Dewpoint
40 40 39 40 41 42 45 46 48 47 47 49 53 54 55 57 58 58 59 60 60 62 62 62 63 63 62
37 37 37 39 40 40 39 40 42 40 41 50 51 52 53 53 55 57 57 58 58 59 60 61 61 62 62
33 35 35 36 34 35 34 35 35 36 36 46 47 46 48 51 53 54 55 56 56 57 58 59 60 61 61
32 32 33 33 33 31 30 33 32 31 40 36 37 38 39 46 49 50 51 52 54 56 56 56 56 58 59
29 30 29 29 29 30 30 31 30 37 33 33 35 36 38 40 43 47 49 50 52 53 55 55 55 56 57
28 27 27 28 30 31 30 28 27 34 31 32 35 35 37 42 44 45 47 48 50 51 52 53 54 54 55
27 27 27 28 29 28 28 29 29 31 31 30 33 33 35 38 40 43 43 43 46 48 50 51 52 52 53
29 29 30 30 31 30 30 30 29 30 32 27 30 31 33 34 36 42 44 45 47 48 49 50 50 51 51
33 33 33 34 30 29 27 26 24 25 28 29 28 26 27 30 38 37 39 39 42 45 49 50 50 50 50
31 30 32 28 30 28 27 26 25 23 27 25 25 28 25 30 31 31 35 35 39 40 43 49 49 48 48
31 29 29 27 26 27 28 26 24 25 27 25 24 26 26 26 28 28 31 34 34 36 38 44 49 48 45
26 25 25 25 25 24 26 26 27 27 28 27 25 25 25 26 25 26 28 30 33 35 39 42 48 48 47
25 25 25 24 25 24 25 26 25 26 27 27 26 27 28 27 27 28 27 28 30 31 34 37 41 41 39
27 28 28 23 23 24 22 24 24 24 25 26 26 26 26 28 27 27 28 28 29 30 31 34 39 42 41
25 24 23 23 24 24 22 22 22 21 21 22 24 25 27 26 26 26 27 28 30 31 31 32 35 40 41
23 22 22 21 21 21 22 22 21 20 20 21 20 24 24 24 28 27 27 27 29 31 31 30 31 37 41
20 17 18 18 20 20 21 21 19 19 21 21 19 20 19 18 22 28 28 29 29 30 30 31 32 33 39